Muskegon, MI

9:00 AM EDT on September 19, 2017 (GMT -0400)
Muskegon County

Weather History for KMKG - March, 2012

Change the Weather History Date:

Sunday, March 18, 2012

  Actual Average Record
Temperature  
Mean Temperature 65 °F 36 °F  
Max Temperature 73 °F 44 °F 73 °F (2012)
Min Temperature 56 °F 27 °F 5 °F (1967)
Degree Days  
Heating Degree Days 0 29  
Month to date heating degree days 344 581  
Since 1 July heating degree days 4358 5313  
Cooling Degree Days 0 0  
Month to date cooling degree days 3 0  
Year to date cooling degree days 3 0  
Growing Degree Days 14 (Base 50)    
Moisture  
Dew Point 54 °F    
Average Humidity 68    
Maximum Humidity 86    
Minimum Humidity 49    
Precipitation  
Precipitation 0.00 in 0.07 in 0.89 in (1952)
Month to date precipitation 1.87 1.27  
Year to date precipitation 6.84 5.13  
Snow  
Snow 0.00 in 0.30 in 6.00 in (1914)
Month to date snowfall 5.6 6.5  
Since 1 July snowfall 55.7 88.9  
Snow Depth 0.00 in    
Sea Level Pressure  
Sea Level Pressure 30.03 in    
Wind  
Wind Speed 6 mph (South)    
Max Wind Speed 17 mph    
Max Gust Speed 22 mph    
Visibility 10 miles    
Events      
T = Trace of Precipitation, MM = Missing Value Source: NWS Daily Summary

Daily Weather History Graph

Daily Weather History Graph

Search for Another Location

Airport or City:

Trip Planner

Search our weather history database for the weather conditions in past years. The results will help you decide how hot, cold, wet, or windy it might be!

Date:

Astronomy

Mar. 18, 2012 Rise Set
Actual Time 7:50 AM EDT 7:55 PM EDT
Civil Twilight 7:22 AM EDT 8:23 PM EDT
Nautical Twilight 6:49 AM EDT 8:57 PM EDT
Astronomical Twilight 6:15 AM EDT 9:31 PM EDT
Moon 5:35 AM EDT (3/18) 4:16 PM EDT (3/18)
Length of Visible Light 13h 01m
Length of Day
12h 04m
Waning Crescent, 15% of the Moon is Illuminated
Mar 18
Waning Crescent
Mar 22
New
Mar 30
First Quarter
Apr 6
Full
Apr 13
Last Quarter

Hourly Weather History & Observations

Time (EDT) Temp. Dew Point Humidity Pressure Visibility Wind Dir Wind Speed Gust Speed Precip Events Conditions
12:55 AM 61.0 °F 52.0 °F 72% 30.02 in 10.0 mi SSE 6.9 mph - N/A   Clear
1:55 AM 63.0 °F 53.1 °F 70% 30.02 in 10.0 mi SSE 5.8 mph - N/A   Clear
2:55 AM 62.6 °F 53.6 °F 72% 30.02 in 10.0 mi SSE 5.8 mph - N/A   Clear
3:55 AM 62.1 °F 54.0 °F 75% 30.01 in 10.0 mi SSE 5.8 mph - N/A   Mostly Cloudy
4:55 AM 60.1 °F 54.0 °F 80% 30.01 in 10.0 mi SSE 5.8 mph - N/A   Clear
5:55 AM 59.0 °F 53.1 °F 81% 30.03 in 10.0 mi South 4.6 mph - N/A   Clear
6:55 AM 61.0 °F 55.0 °F 81% 30.03 in 10.0 mi SSW 8.1 mph - N/A   Clear
7:55 AM 55.9 °F 52.0 °F 87% 30.05 in 7.0 mi Calm Calm - N/A   Clear
8:55 AM 57.2 °F 51.8 °F 82% 30.07 in 6.0 mi Calm Calm - N/A   Haze
9:55 AM 61.0 °F 53.1 °F 75% 30.07 in 10.0 mi South 4.6 mph - N/A   Clear
10:55 AM 63.0 °F 55.9 °F 78% 30.08 in 10.0 mi South 9.2 mph - N/A   Clear
11:55 AM 66.9 °F 55.9 °F 68% 30.08 in 10.0 mi South 10.4 mph - N/A   Clear
12:55 PM 66.0 °F 57.0 °F 73% 30.08 in 10.0 mi SSW 11.5 mph 19.6 mph N/A   Clear
1:55 PM 68.0 °F 57.0 °F 68% 30.07 in 10.0 mi SSW 11.5 mph - N/A   Clear
2:55 PM 68.0 °F 57.0 °F 68% 30.05 in 10.0 mi SSW 13.8 mph - N/A   Clear
3:55 PM 71.1 °F 55.0 °F 57% 30.03 in 10.0 mi SSW 12.7 mph - N/A   Clear
4:55 PM 72.0 °F 55.9 °F 57% 30.03 in 10.0 mi South 9.2 mph - N/A   Clear
5:55 PM 72.0 °F 51.1 °F 48% 30.01 in 10.0 mi South 6.9 mph - N/A   Clear
6:55 PM 72.0 °F 53.1 °F 51% 30.00 in 10.0 mi SSW 3.5 mph - N/A   Clear
7:55 PM 66.9 °F 53.1 °F 61% 30.00 in 10.0 mi Calm Calm - N/A   Clear
8:55 PM 63.0 °F 53.1 °F 70% 30.00 in 10.0 mi Calm Calm - N/A   Clear
9:55 PM 60.1 °F 53.1 °F 78% 30.01 in 10.0 mi Calm Calm - N/A   Clear
10:55 PM 61.0 °F 53.1 °F 75% 30.00 in 10.0 mi SE 6.9 mph - N/A   Clear
11:55 PM 64.9 °F 55.0 °F 70% 30.00 in 10.0 mi SE 8.1 mph - N/A   Overcast